STARLINK-2373, 47796

Orbit data source: Space-Track

STARLINK-2373, 47796 is a payload satellite owned by SpaceX/Seattle (US) in LEO that was launched on Thu, 11 Mar 2021 UTC via an FALCON 9 launch vehicle from the Air Force Eastern Test Range (AFETR). Payload-class satellites include a variety of spacecraft equipped with specific instruments for various scientific and technological missions. These include communications satellites like Starlink; space stations such as the ISS; scientific satellites like the Hubble; Earth observation satellites from companies like Planet Labs, Umbra, and HawkEye 360; GPS; miniature CubeSats for education and research; and military/defense satellites.

Loading next visibility...
Identifier
47796, 2021-018K
Orbit
LEO
Country
Flag of USUS
Related business
Manufacturer
SpaceX/Seattle
Mission
Partially operational Commercial Communications
Bus & Motor
STARLINK, Unknown motor
Mass
260 kg wet, ~248 kg dry
Launch date (UTC)
2021-03-11 (5 years ago)
Launch vehicle
FALCON 9
Launch site
Air Force Eastern Test Range (AFETR)
Object type
Payload
Rocket body
Debris
Shape & HBR
Box + 1 Pan, 10.1 m
Radar Cross Section
13.562 m², Large (>1 m²)

Expand to show TLE details & history
Last TLE update: 13 hours ago

TLE from 13 hours ago
0 STARLINK-2373
1 47796U 21018K   26248.06419902  .00030201  00000-0  72579-3 0  9997
2 47796  53.1537 120.4789 0003402 108.3211 251.8165 15.41097615304302
Epoch: 2026-09-05T01:32Z
TLE epoch observation values (Epoch: 2026-09-05T01:32:26.795Z)
Latitude
0.00001°
Longitude
113.18822°
Altitude
444.497 km
Speed
7.646 km/s
True Right ascension
08h 01m 54s
True Declination
0° 00' 00"
Sunlit
Object was in daylight at epoch
Visualization orbit readout
Latitude
Unknown
Longitude
Unknown
Altitude
Unknown
Speed
Unknown
Apparent Right ascension
Unknown
Apparent Declination
Unknown
Sunlit
N/A
Visualization observer readout
Local Sidereal Time
06:14:45
Azimuth
Unknown
Elevation
Unknown
Doppler factor
Unknown
Orbital elements
Apogee altitude
445.448 km
Perigee altitude
440.807 km
Semi-major axis
6,821.264 km
Eccentricity
0.00034
Inclination
53.1537°
RAAN
120.4789°
Arg. of periapsis
108.3211°
True anomaly
251.77947°
Mean anomaly
251.8165°
Eccentric anomaly
251.79798°
Mean motion
3.85253 °/min
Orbital period
93.45 mins
BSTAR
0.00072579
Loading maneuver chart data...
Computing Atmospheric mass density...
Loading historical data...
Loading historical data...
Loading historical data...
Loading historical data...
Loading historical data...
Loading historical data...
Loading historical data...

Documentation

Showing up to 5 results
|